DELTA 1 DEB, 7019

Orbit data source: Space-Track

DELTA 1 DEB, 7019 is space debris in SSO originally from a launch on Tue, 06 Nov 1973 UTC launched from the Air Force Western Test Range (AFWTR). Debris objects in space refer to the collection of defunct objects orbiting the Earth. Examples of debris include non-operational satellites, rocket bodies, and fragments generated from explosions, collisions, or faulty payload assembly.

Loading next visibility...
Identifier
7019, 1973-086K
Orbit
SSO
Country
Flag of USUS
Related business
Manufacturer
Unknown
Mission
Spacecraft
Bus & Motor
Unknown
Mass
Unknown
Launch date (UTC)
1973-11-06 (52 years ago)
Launch vehicle
Unknown
Launch site
Air Force Western Test Range (AFWTR)
Object type
Payload
Rocket body
Debris
Shape & HBR
Unknown shape, 0.5 m
Radar Cross Section
Medium (>0.1 m² and <1 m²)

Expand to show TLE details & history
Last TLE update: 11 hours ago

TLE from 11 hours ago
0 DELTA 1 DEB
1  7019U 73086K   25353.99188654  .00000023  00000-0  49607-3 0  9993
2  7019 102.2189   2.0142 0065783 175.5280 243.0645 12.42787652362591
Epoch: 2025-12-19T23:48Z
TLE epoch observation values (Epoch: 2025-12-19T23:48:18.997Z)
Latitude
56.00195°
Longitude
-102.52346°
Altitude
1,527.648 km
Speed
7.096 km/s
True Right ascension
22h 53m 31s
True Declination
55° 51' 28"
Sunlit
Object was in daylight at epoch
Visualization orbit readout
Latitude
Unknown
Longitude
Unknown
Altitude
Unknown
Speed
Unknown
Apparent Right ascension
Unknown
Apparent Declination
Unknown
Sunlit
N/A
Visualization observer readout
Local Sidereal Time
09:28:04
Azimuth
Unknown
Elevation
Unknown
Doppler factor
Unknown
Orbital elements
Apogee altitude
1,544.167 km
Perigee altitude
1,440.617 km
Semi-major axis
7,870.529 km
Eccentricity
0.00658
Inclination
102.2189°
RAAN
2.0142°
Arg. of periapsis
175.528°
True anomaly
242.39497°
Mean anomaly
243.0645°
Eccentric anomaly
242.72948°
Mean motion
3.1084 °/min
Orbital period
115.82 mins
BSTAR
0.00049607
Loading maneuver chart data...
Computing Atmospheric mass density...
Loading historical data...
Loading historical data...
Loading historical data...
Loading historical data...
Loading historical data...
Loading historical data...
Loading historical data...

Documentation

Showing up to 5 results
|